949  
ASUS42 KKEY 210710  
RWRKEY  
 
FLORIDA REGIONAL WEATHER ROUNDUP FOR THE FLORIDA KEYS  
NATIONAL WEATHER SERVICE KEY WEST FLORIDA  
200 AM EST TUE FEB 21 2017  
   
..SOUTH FLORIDA AND THE KEYS
 
 
 
CITY SKY/WX TMP DP RH WIND PRES REMARKS
 
FORT MYERS CLOUDY 70 63 78 E3 30.07S  
SW REGIONAL AP MOCLDY 68 61 78 CALM 30.07F  
NAPLES CLOUDY 69 65 86 NE5 30.06F  
MIAMI PTCLDY 68 59 73 E6 30.06S  
WEST KENDALL CLEAR 62 60 93 W3 30.06S  
HOMESTEAD MOCLDY 71 64 80 NE5 30.05S  
MARATHON PTCLDY 74 64 71 E6 30.04F  
BOCA CHICA NAS NOT AVBL  
KEY WEST INTL PTCLDY 74 65 73 E6 30.05F  
   
..INTERNATIONAL WEATHER
 
 
 
CITY SKY/WX TMP DP RH WIND PRES REMARKS
 
NASSAU BAHAMAS PTCLDY 73 52 46 NE7 30.07  
CANCUN MEXICO MOCLDY 77 72 83 SE9 29.98F  
COZUMEL MEXICO PTCLDY 77 72 83 SE6 29.96F  
 
ADJACENT COASTAL WATERS...  
 
STATION/POSITION TIME SKY/WX TEMP WIND PRES WAVE
 
AIR SEA DIR/SP/G HT/PER  
(UTC) (F) (DEG/KT/KT) (MB) (FT/S)  
PULASKI SHOAL LI 0700 74 110/ 13/ 14 1016.9F  
SAND KEY 0650 75 110/ 11/ 13 1017.8F  
LONG KEY 0600 74 77 90/ 10/ 12 1017.9F  
MOLASSES REEF NOT AVBL  
FOWEY ROCKS 0700 73 76 60/ 13/ 15 1018.3R  
BUOY 42097 0700 N/A 2/ 6  
 

 
 
 
CLICK HERE TO GO TO PREVIOUS BULLETINS.

The Nexlab FL Page Main Text Page